SCP
2 2 2 1 1 0 0 0 0 0 0 0 0 0 0 0 0 0 0 0 0 0 0 0 0 0 0 0 0 0 0 0 0 0 0 0 0 0 0 1 1 1 1 1 1 1 1 1 1
2 2 1 1 1 0 0 0 0 0 0 0 0 0 0 0 0 0 0 0 0 0 0 0 0 0 0 0 0 0 0 0 0 0 0 0 0 0 0 1 1 1 1 1 1 1 1 1 1
1 1 1 1 0 0 0 1 1 0 0 0 0 0 0 0 0 0 0 0 0 0 0 0 0 0 0 0 1 1 0 0 0 0 0 0 0 0 0 1 1 1 1 1 1 1 1 1 1
1 1 1 0 0 0 0 0 0 0 0 0 0 0 0 0 0 0 0 0 0 0 0 0 0 0 0 0 0 1 0 0 0 0 0 0 0 0 0 0 1 1 0 1 1 1 1 1 1
1 1 0 0 0 0 0 0 0 0 0 0 0 1 1 1 0 0 0 0 0 0 0 0 0 0 0 0 0 0 0 0 0 0 0 1 1 1 1 1 1 1 0 0 1 1 1 1 1
1 1 0 0 0 0 0 0 0 0 0 0 1 1 1 0 0 0 0 0 0 0 0 0 0 1 0 0 0 0 0 0 0 0 0 0 1 1 1 1 1 1 0 0 1 1 1 1 2
1 0 0 0 0 0 1 1 1 1 0 0 1 1 1 1 0 0 0 1 1 0 0 0 0 0 0 0 0 0 0 0 0 0 0 0 0 1 1 1 1 1 0 1 1 1 1 1 2
0 0 0 0 0 1 1 1 1 1 0 0 1 1 1 1 0 0 1 1 1 0 0 0 0 0 0 0 0 0 0 0 0 0 0 0 0 0 0 0 0 0 0 1 1 1 1 1 1
0 0 0 0 1 1 1 1 0 0 0 0 1 1 1 1 1 0 1 1 1 0 0 0 0 1 0 0 0 0 0 0 0 0 0 0 0 0 0 0 0 0 0 0 1 1 1 1 1
0 0 0 1 1 1 0 0 0 0 0 0 1 1 1 1 1 1 1 1 1 0 0 0 0 0 0 0 0 0 0 0 0 0 0 0 0 0 0 0 0 0 0 0 0 1 1 1 1
0 0 0 0 0 0 0 0 0 0 0 0 1 1 1 1 1 1 1 1 1 1 0 0 0 0 0 0 0 0 0 0 0 0 0 0 0 0 0 0 0 0 0 0 0 0 1 1 1
0 0 0 0 0 0 0 0 0 0 0 0 1 1 1 1 1 1 1 1 1 1 0 0 0 0 0 0 0 0 0 0 0 0 0 0 0 0 0 0 0 0 0 0 0 0 0 0 1
0 0 0 0 0 0 0 0 0 0 0 0 0 1 1 1 1 1 1 1 1 1 0 0 0 0 0 0 0 0 0 0 0 0 0 0 0 0 0 0 0 0 0 0 0 0 0 0 0
0 0 0 0 0 0 0 0 0 0 0 0 0 1 1 1 1 1 1 1 1 1 1 0 0 0 0 0 0 0 0 0 0 0 0 0 0 0 0 0 0 0 0 0 0 0 0 0 0
0 0 0 0 0 0 0 0 0 0 0 0 0 0 1 0 1 1 1 1 1 1 1 1 0 0 0 0 0 0 0 0 0 0 0 0 0 0 0 0 0 0 0 0 0 0 0 0 0
0 0 0 0 0 0 0 0 0 0 0 0 1 1 1 1 1 1 1 1 1 1 1 1 1 0 0 0 0 0 0 0 0 0 0 0 0 0 0 0 0 0 0 0 0 0 0 0 0
0 0 0 0 0 0 0 0 0 0 0 1 1 2 1 1 1 1 1 1 1 1 1 1 1 1 0 0 0 0 0 0 0 0 0 0 0 0 0 0 0 0 0 0 0 0 0 0 0
0 0 0 0 0 0 0 0 0 0 0 1 2 2 2 2 1 1 1 1 1 1 1 1 1 1 1 1 0 0 0 0 0 0 0 0 0 0 0 0 0 0 0 0 0 0 0 1 1
0 0 0 0 0 0 0 0 0 0 1 1 2 2 1 1 1 1 1 1 1 1 1 1 1 1 1 1 1 1 0 0 0 0 0 0 0 0 0 0 0 0 0 0 0 0 1 1 1
0 0 0 0 0 0 0 0 0 1 1 1 1 1 1 1 1 1 1 1 1 1 1 1 1 1 1 1 1 1 1 1 0 0 0 0 0 0 0 0 0 0 0 0 0 1 1 1 1
0 0 0 0 0 0 0 0 0 1 1 1 1 1 1 1 1 1 1 1 1 1 1 2 2 2 2 2 1 1 1 1 1 1 0 0 0 0 0 0 0 0 1 0 0 1 1 1 1
0 0 0 0 0 0 0 0 0 1 1 1 1 1 1 1 1 1 1 1 1 1 2 2 2 2 2 2 2 1 1 1 1 1 1 1 0 0 0 0 0 0 1 1 0 0 1 1 0
0 0 0 0 0 0 0 0 0 1 1 1 1 1 0 1 1 1 1 1 1 1 2 1 2 2 3 3 2 2 2 1 1 1 1 1 0 0 0 0 0 0 0 0 0 0 0 0 0
0 0 0 0 0 0 0 0 1 1 1 1 1 0 0 1 1 1 1 1 1 2 2 2 2 3 4 3 3 3 2 1 1 1 1 1 0 0 0 0 0 0 0 0 0 0 0 0 0
0 0 0 0 0 0 0 0 1 1 1 1 1 0 0 1 1 1 2 2 2 2 2 2 3 4 4 4 5 4 3 2 1 1 1 1 1 0 0 0 0 0 0 0 0 0 0 0 1
0 0 0 0 0 0 0 0 0 1 1 1 1 0 0 1 1 1 2 2 2 2 2 3 4 5 6 6 6 6 4 3 2 1 1 1 1 1 0 0 0 0 0 0 0 1 1 1 1
0 0 0 0 0 0 0 0 0 1 1 1 1 0 0 1 1 1 2 2 3 3 3 3 4 5 6 6 7 6 5 4 3 2 2 1 1 1 0 0 0 0 0 0 0 1 1 1 1
0 0 0 0 0 0 0 0 0 0 0 0 1 1 0 1 1 1 2 2 3 3 3 4 4 4 4 4 5 5 5 5 5 4 3 1 1 1 1 0 0 0 0 0 0 1 1 1 1
0 0 0 0 0 0 0 0 0 0 0 0 1 1 1 1 1 1 2 2 2 3 3 3 3 3 3 2 3 3 4 5 6 5 4 2 1 1 1 0 0 0 0 0 0 0 1 1 1
0 0 0 0 0 0 0 0 0 0 0 0 0 1 1 1 1 1 1 2 3 3 2 2 3 3 2 2 2 2 2 4 5 5 4 3 2 1 1 0 0 0 0 0 0 0 0 0 1
Wind_Speed
9 10 7 2 2 1 3 5 7 6 7 9 9 8 11 12 9 8 3 4 7 10 11 10 10 10 10 10 10 10 10 10 10 11 11 11 11 12 12 11 12 12 12 11 10 10 10 10 10
9 7 4 3 2 1 4 6 8 8 7 5 6 9 12 11 11 9 4 4 7 10 10 10 10 10 10 10 10 10 10 10 11 11 11 11 11 12 12 11 11 11 11 11 10 11 11 11 10
11 7 4 2 1 3 5 7 7 7 5 4 6 11 9 7 8 6 5 5 8 10 11 9 10 10 10 10 10 11 10 11 11 11 10 11 11 12 12 11 11 11 11 11 11 11 11 11 10
5 3 3 0 3 4 6 7 5 6 5 5 7 9 10 8 6 8 6 7 9 10 11 9 10 10 10 10 11 11 11 10 10 10 10 11 11 12 11 11 11 11 11 11 11 11 11 10 10
4 3 1 2 4 5 6 6 5 6 6 7 9 11 9 8 9 8 6 7 9 9 9 10 10 10 10 10 10 11 11 10 10 10 10 11 12 12 12 11 11 11 11 11 11 11 10 9 9
3 2 1 2 5 4 5 5 5 7 6 7 9 11 8 7 7 6 6 6 8 9 9 9 10 10 10 10 10 10 10 10 10 10 10 11 11 12 12 12 11 11 12 11 11 10 10 9 8
3 2 0 4 4 3 4 5 5 5 5 6 6 9 8 7 5 6 6 6 7 7 8 8 9 9 10 10 10 10 9 9 9 9 10 10 11 11 11 11 11 11 11 10 9 9 9 8 8
3 2 1 3 4 4 4 6 5 5 5 4 4 7 8 7 6 6 6 7 6 5 6 7 8 9 8 7 9 9 9 8 7 8 8 9 9 9 10 10 11 10 9 9 8 8 7 6 6
3 1 1 2 2 4 5 4 4 5 6 6 8 9 11 10 8 6 6 6 5 5 4 5 6 7 8 7 8 7 7 6 6 5 6 5 4 5 6 9 9 8 7 7 6 6 5 5 4
0 1 2 3 3 4 4 4 3 4 6 6 8 11 11 9 7 7 6 6 6 5 4 4 6 6 7 6 6 4 4 4 3 3 3 2 3 4 6 7 7 6 5 4 4 4 3 2 1
1 1 2 3 4 3 3 4 3 3 3 5 8 11 11 9 7 6 6 6 5 5 4 4 5 6 6 4 3 2 2 2 2 4 4 4 3 3 4 3 3 2 2 1 2 1 0 2 2
1 1 2 3 3 2 2 2 3 3 3 4 7 10 10 8 7 6 6 6 5 4 4 4 4 5 5 4 3 2 2 2 2 2 4 3 2 2 3 2 2 1 1 1 1 1 3 4 4
1 1 2 3 2 1 1 1 2 2 3 4 6 9 8 7 6 5 6 7 6 5 4 3 3 4 5 4 2 3 3 2 3 2 3 4 2 2 3 2 2 2 2 2 2 3 4 4 5
1 2 2 2 2 2 2 2 3 3 5 6 6 7 8 8 7 6 6 7 6 5 5 3 3 4 5 4 2 3 3 3 3 2 2 4 3 2 3 3 3 3 2 2 3 4 4 4 4
2 3 3 4 3 2 2 4 4 4 5 6 7 7 6 6 7 5 5 6 6 5 5 4 3 4 4 4 3 3 3 3 2 2 2 3 3 3 3 3 3 2 2 3 3 4 3 3 4
6 6 4 4 5 4 4 4 3 4 5 5 5 6 6 5 6 6 5 5 5 5 5 5 4 4 4 4 3 3 3 3 2 2 2 3 4 4 3 3 2 3 3 3 3 3 3 3 4
6 5 5 5 5 4 5 3 3 5 6 6 6 6 7 7 6 6 6 5 5 5 6 6 5 4 4 4 3 3 3 3 2 2 2 2 3 4 3 3 2 3 3 2 3 3 3 3 3
5 5 4 4 4 5 5 4 5 6 7 6 6 5 6 7 7 7 6 6 5 4 5 6 5 5 5 3 3 3 3 2 2 2 2 3 2 3 4 2 3 3 3 2 3 3 3 2 1
6 5 5 3 4 5 6 6 6 7 7 6 6 6 6 6 6 7 7 6 5 5 5 6 6 4 4 3 2 3 2 2 2 2 3 3 2 3 3 2 3 3 2 2 3 2 2 2 2
7 6 6 3 3 4 5 7 6 8 7 6 5 6 6 6 6 6 7 6 5 5 5 5 6 5 5 3 3 3 3 2 2 2 2 2 2 2 3 2 3 2 2 2 3 2 2 1 1
8 6 5 4 5 6 7 7 8 8 7 6 5 5 6 6 7 6 6 6 5 5 5 5 6 6 6 5 2 2 2 2 2 2 1 2 2 2 2 3 3 2 2 2 2 2 2 1 1
7 5 5 6 6 5 5 5 5 7 8 8 6 5 5 6 6 5 5 5 5 5 4 4 5 5 5 5 3 4 3 2 2 2 2 2 2 2 2 2 2 2 2 2 1 2 1 1 0
6 5 7 8 8 9 8 7 4 6 7 8 7 6 5 6 7 6 5 4 4 4 4 3 4 4 4 5 4 4 3 2 2 2 3 2 2 2 2 2 2 2 2 2 2 1 1 1 1
6 7 9 8 6 9 9 8 3 3 5 7 7 7 6 6 6 6 6 5 4 4 4 3 4 4 4 4 5 4 4 4 3 3 3 2 2 2 2 2 2 2 2 2 2 1 1 0 1
7 6 4 5 6 7 7 6 3 3 4 5 6 7 6 6 6 5 6 5 5 5 5 4 4 4 5 4 5 4 4 4 4 3 3 2 2 2 3 2 2 2 2 2 2 2 1 1 1
7 8 5 4 4 4 4 2 2 6 6 6 6 6 6 6 5 5 5 4 4 5 5 4 4 4 4 4 4 4 4 3 2 3 2 2 2 2 3 3 2 2 2 2 2 1 2 1 2
6 7 7 7 9 7 4 2 3 6 7 6 6 5 5 5 5 5 5 5 4 4 4 5 4 4 3 4 3 3 4 3 2 2 2 1 1 1 2 3 2 2 2 2 2 1 1 1 1
7 6 5 5 5 6 4 3 1 5 6 6 5 4 4 5 5 5 4 4 4 4 3 3 3 3 3 3 3 3 3 3 3 2 2 2 2 1 1 2 2 2 2 2 1 1 1 1 1
7 7 5 5 6 5 3 0 2 3 4 5 4 4 4 5 4 4 3 3 4 4 4 3 3 2 2 2 2 2 2 3 3 2 2 2 2 2 1 1 2 2 2 2 2 1 1 1 1
6 6 5 4 6 6 5 1 2 3 4 4 4 4 4 4 4 4 4 3 3 4 4 4 3 3 2 2 2 2 2 2 2 2 2 2 2 2 2 2 1 1 1 1 2 2 2 2 1
Wind_Direction
260 250 246 250 257 229 60 65 64 55 53 48 40 51 63 51 51 86 114 84 93 100 103 90 76 71 68 66 64 63 69 70 70 69 67 63 61 60 62 65 67 69 71 69 64 65 67 70 70
273 265 263 242 250 84 79 78 72 61 62 63 56 62 71 65 74 97 108 86 94 94 92 89 84 76 73 72 69 68 72 73 73 71 68 66 64 62 63 65 67 70 72 71 68 68 68 68 67
265 266 264 257 1 64 87 85 86 81 70 74 74 64 59 67 80 96 120 117 100 93 92 92 90 85 80 76 73 73 74 75 76 75 71 71 70 69 67 67 70 74 73 71 69 69 68 67 63
264 256 247 283 55 64 88 99 101 100 84 74 82 78 71 59 85 113 128 119 102 99 101 100 97 93 86 81 77 76 76 77 77 77 77 75 75 73 71 69 72 75 75 73 71 70 67 64 61
245 257 247 95 72 62 72 85 95 83 76 70 80 89 86 79 96 116 124 110 105 105 109 110 106 100 93 88 83 81 79 78 79 80 80 78 78 76 74 72 76 76 73 72 71 69 66 64 61
265 253 251 104 95 83 82 87 87 86 83 86 94 99 97 109 110 116 109 107 110 113 115 117 117 111 104 97 92 87 84 82 81 81 82 82 81 77 75 74 77 76 73 72 71 71 68 64 58
269 280 212 110 102 93 90 89 80 86 78 73 91 101 114 119 123 123 116 112 110 122 129 131 133 126 115 107 101 97 93 92 90 87 87 89 87 85 82 78 77 78 79 79 77 75 73 67 59
281 320 13 97 115 105 93 90 82 84 86 76 83 110 127 136 137 128 126 121 120 124 130 136 140 135 131 122 117 115 111 107 106 102 101 101 96 93 92 86 80 82 84 86 86 84 79 72 63
285 330 34 64 105 108 108 105 95 93 97 85 73 96 123 137 141 137 133 127 125 120 126 128 130 130 129 128 128 135 131 129 130 127 127 124 105 95 91 91 91 90 93 97 100 96 86 82 78
185 1 71 71 75 101 120 117 118 118 108 106 103 109 126 138 144 146 142 136 133 137 136 125 124 125 123 121 136 149 143 150 167 134 130 115 88 87 91 102 101 96 100 114 118 119 117 114 89
175 127 74 81 79 101 120 119 119 121 120 128 129 133 137 146 152 150 141 133 128 125 119 122 119 114 114 116 124 124 120 137 119 102 107 99 96 103 100 108 104 96 108 108 125 148 112 75 60
190 91 82 89 91 92 86 108 104 88 89 108 125 135 144 157 159 150 135 125 117 116 116 108 111 118 119 114 113 123 104 97 91 94 99 94 91 90 96 96 97 101 64 47 52 62 62 65 61
200 127 105 112 141 136 137 127 123 131 125 130 128 139 153 157 154 149 142 132 127 119 107 109 115 114 110 103 130 108 101 97 97 85 98 101 97 94 87 87 83 71 55 50 40 45 56 56 56
179 158 151 179 188 182 190 200 192 162 160 161 155 159 164 161 161 157 145 138 137 138 138 122 122 104 107 117 122 108 104 99 92 90 95 103 102 93 90 76 79 75 56 57 57 54 56 59 64
225 207 193 196 198 194 216 225 201 174 179 176 175 171 159 158 157 159 153 148 147 153 144 133 136 115 115 114 99 101 109 105 97 88 84 92 92 83 79 84 76 78 69 59 57 57 55 64 63
231 220 208 196 199 185 215 238 176 159 188 188 183 169 159 165 164 160 155 150 150 150 146 142 146 130 119 105 100 103 97 99 100 90 72 81 91 91 78 74 74 71 66 59 59 59 57 59 55
234 232 221 209 194 201 218 229 183 176 194 194 192 175 168 172 173 160 154 157 157 159 154 148 149 137 124 120 115 104 102 103 101 93 85 77 78 90 87 77 77 77 69 63 63 57 52 63 62
249 250 239 218 188 222 236 235 198 192 201 196 181 173 177 177 173 162 158 160 161 164 157 151 146 148 136 127 119 103 97 101 95 87 85 81 68 86 98 94 86 80 75 68 69 71 63 65 64
277 272 272 251 206 230 242 242 213 191 195 198 182 180 180 182 163 157 162 162 159 159 160 153 154 151 132 126 126 123 120 119 113 108 101 96 90 81 88 81 82 76 84 90 89 81 78 62 67
268 270 274 271 227 247 255 253 232 198 194 190 190 183 172 171 163 162 163 157 158 166 174 161 156 150 142 139 143 138 133 134 121 101 105 117 117 112 111 109 103 94 92 82 82 82 71 52 70
260 267 276 287 292 267 268 263 240 200 188 182 192 187 168 168 164 158 159 157 157 168 181 175 160 153 146 144 133 126 110 103 104 113 112 112 103 98 101 96 109 120 116 112 106 107 98 88 7
265 268 276 270 266 261 243 270 244 195 185 180 182 181 158 147 141 146 146 145 162 171 176 169 156 152 146 146 141 137 136 144 151 139 136 134 123 118 108 109 102 106 104 123 128 118 122 110 46
270 285 272 264 264 269 247 250 244 185 190 180 172 166 152 147 148 147 138 143 159 162 160 160 152 147 140 145 151 151 150 156 144 137 145 148 144 140 138 127 124 126 125 128 109 94 111 134 150
268 269 263 252 254 256 241 236 240 193 174 163 160 154 144 140 141 142 139 142 147 138 137 143 147 137 137 155 158 161 164 164 156 156 163 171 159 153 153 141 148 150 143 142 141 134 142 145 125
243 258 259 233 222 242 232 225 194 150 129 130 139 140 135 129 131 132 139 148 142 142 146 146 144 150 156 164 165 171 176 165 158 162 171 175 169 165 177 159 166 163 166 156 149 159 184 176 150
248 247 251 271 270 287 269 232 129 120 108 104 109 117 125 133 134 134 133 132 141 146 147 153 157 155 160 170 181 178 164 155 156 163 166 174 170 169 165 165 175 168 165 160 156 172 196 176 175
259 250 252 267 278 273 235 185 135 117 112 113 115 114 121 128 128 134 135 136 140 137 150 154 153 153 166 175 182 173 163 157 163 174 153 149 144 151 159 162 169 170 165 166 158 174 202 193 181
250 279 279 256 268 264 247 233 184 156 136 127 126 126 124 123 125 124 130 132 137 135 134 146 150 159 165 174 190 173 161 156 159 161 159 164 161 143 152 166 164 158 149 149 135 159 209 181 154
230 242 258 266 262 271 275 323 41 105 117 124 128 126 129 126 122 121 125 137 140 138 141 151 155 153 163 173 185 171 162 164 157 161 164 166 159 165 172 161 173 173 168 165 152 178 201 192 181
254 259 258 262 273 276 278 252 104 110 107 108 114 113 111 111 114 122 130 131 141 148 154 160 161 166 165 174 176 167 159 162 161 163 164 166 175 186 173 165 161 160 156 167 162 194 199 196 192